TimeEDT,TemperatureF,Dew PointF,Humidity,Sea Level PressureIn,VisibilityMPH,Wind Direction,Wind SpeedMPH,Gust SpeedMPH,PrecipitationIn,Events,Conditions,WindDirDegrees,DateUTC
12:54 AM,59.0,48.0,67,29.92,10.0,NW,11.5,-,N/A,,Clear,320,2013-09-14 04:54:00
1:54 AM,57.9,48.0,70,29.92,10.0,NNW,12.7,-,N/A,,Clear,330,2013-09-14 05:54:00
2:54 AM,57.0,46.9,69,29.93,10.0,NNW,11.5,-,N/A,,Clear,330,2013-09-14 06:54:00
3:54 AM,55.9,46.9,72,29.94,10.0,NW,8.1,-,N/A,,Clear,320,2013-09-14 07:54:00
4:54 AM,55.0,46.0,72,29.94,10.0,NNW,8.1,-,N/A,,Clear,330,2013-09-14 08:54:00
5:54 AM,54.0,46.0,75,29.96,10.0,West,4.6,-,N/A,,Clear,280,2013-09-14 09:54:00
6:54 AM,54.0,46.0,75,29.99,10.0,Calm,Calm,-,N/A,,Clear,0,2013-09-14 10:54:00
7:54 AM,57.0,46.9,69,30.01,10.0,NNW,4.6,-,N/A,,Clear,330,2013-09-14 11:54:00
8:54 AM,60.1,45.0,57,30.02,10.0,North,11.5,21.9,N/A,,Partly Cloudy,350,2013-09-14 12:54:00
9:54 AM,63.0,46.0,54,30.03,10.0,NNW,13.8,-,N/A,,Clear,340,2013-09-14 13:54:00
10:54 AM,64.0,46.0,52,30.04,10.0,North,15.0,19.6,N/A,,Scattered Clouds,350,2013-09-14 14:54:00
11:54 AM,64.0,46.9,54,30.04,10.0,WNW,15.0,21.9,N/A,,Mostly Cloudy,300,2013-09-14 15:54:00
12:54 PM,64.9,46.9,52,30.05,10.0,NW,11.5,-,N/A,,Mostly Cloudy,310,2013-09-14 16:54:00
1:54 PM,66.9,46.9,49,30.05,10.0,North,9.2,19.6,N/A,,Mostly Cloudy,350,2013-09-14 17:54:00
2:54 PM,64.9,46.0,50,30.05,10.0,NNW,12.7,-,N/A,,Overcast,330,2013-09-14 18:54:00
3:54 PM,64.9,46.9,52,30.06,10.0,NW,10.4,-,N/A,,Overcast,320,2013-09-14 19:54:00
4:54 PM,66.0,46.9,50,30.07,10.0,NW,11.5,-,N/A,,Scattered Clouds,310,2013-09-14 20:54:00
5:54 PM,63.0,46.9,56,30.09,10.0,North,12.7,-,N/A,,Mostly Cloudy,360,2013-09-14 21:54:00
6:54 PM,61.0,46.0,58,30.10,10.0,NNW,10.4,-,N/A,,Partly Cloudy,340,2013-09-14 22:54:00
7:54 PM,57.9,46.0,65,30.13,10.0,NNW,6.9,-,N/A,,Clear,340,2013-09-14 23:54:00
8:54 PM,55.9,46.0,69,30.16,10.0,North,6.9,-,N/A,,Clear,350,2013-09-15 00:54:00
9:54 PM,55.0,45.0,69,30.17,10.0,NNW,3.5,-,N/A,,Clear,340,2013-09-15 01:54:00
10:54 PM,54.0,46.0,75,30.17,10.0,Calm,Calm,-,N/A,,Clear,0,2013-09-15 02:54:00
11:54 PM,52.0,46.0,80,30.18,10.0,NW,3.5,-,N/A,,Clear,310,2013-09-15 03:54:00